GFSCGP_sfc_wetblb_108.txt.gz
Wetbulb
39.24 35.22 32.28 35.26 35.78 34.47 34.14 32.57 30.81 33.89 39.06 37.46 36.12 36.33 38.55 40.14 39.53 39.61 39.35 39.71 40.35 42.10 46.18 45.01 44.93 46.11 46.76 51.70 56.32 59.65 61.14 60.94 61.45 61.55 61.36 61.34 61.77 58.45 61.09 62.84 61.25 59.94 58.85 56.16
35.58 31.41 36.86 38.10 36.67 35.78 33.38 31.50 30.95 35.34 37.58 36.94 34.73 35.52 37.71 39.14 39.83 41.36 42.85 41.67 41.23 40.68 40.80 44.18 44.14 43.36 44.87 51.46 56.33 58.52 60.32 59.22 60.39 61.54 61.37 58.35 55.10 52.88 53.24 53.71 58.39 59.82 57.36 55.11
32.93 36.08 39.73 38.14 35.33 34.96 32.87 31.76 31.85 33.71 34.17 33.62 33.15 32.13 34.39 37.11 38.34 40.22 41.38 43.30 43.57 41.23 40.48 42.16 43.26 42.97 42.70 49.13 54.85 57.81 59.34 59.09 59.73 56.70 52.11 49.57 50.13 49.70 50.02 49.76 50.14 51.86 56.93 54.95
35.09 38.62 37.58 35.29 34.66 35.82 30.79 36.32 35.80 34.20 31.43 27.32 31.77 26.11 30.70 35.91 38.15 38.12 39.98 40.63 41.22 40.97 41.06 41.77 42.83 42.26 42.03 48.08 53.09 56.98 57.46 58.23 56.00 53.70 54.68 52.62 53.10 52.49 50.68 50.18 49.11 49.17 50.26 52.79
34.07 35.73 35.97 34.64 35.56 37.18 34.26 36.91 34.80 32.68 29.66 27.87 26.97 26.50 29.04 32.29 34.38 37.87 39.77 40.06 39.79 40.46 41.71 42.56 42.24 43.24 42.36 48.70 52.40 54.78 55.23 55.30 53.66 53.42 54.48 53.81 52.38 53.63 49.82 48.66 48.88 47.57 47.08 47.95
35.32 38.27 37.73 37.47 37.20 38.19 38.42 35.76 34.20 31.44 29.14 23.88 28.05 28.55 25.88 31.36 35.53 35.76 39.05 40.36 40.60 40.09 39.48 40.35 41.71 42.45 43.21 44.92 49.45 52.14 53.84 53.23 52.78 52.27 51.28 53.98 54.06 50.92 48.08 46.97 47.63 46.49 45.55 44.84
35.27 36.16 37.78 38.72 35.59 36.56 35.31 31.55 23.71 22.45 22.00 22.79 27.70 26.48 30.43 35.09 38.37 38.63 40.92 41.57 39.95 38.87 39.84 40.63 41.29 41.92 43.23 43.63 45.29 49.01 50.79 49.67 50.49 49.41 49.30 49.70 51.17 50.55 49.60 48.08 47.75 44.72 42.72 41.09
30.38 28.27 35.75 39.26 37.32 34.79 33.01 32.62 25.18 17.50 20.11 22.86 27.43 24.69 31.65 37.17 39.28 39.92 41.96 41.98 40.47 39.58 40.11 39.58 40.17 41.65 43.01 43.88 44.42 45.77 47.49 47.16 48.19 47.68 46.58 46.76 47.43 46.00 45.07 44.42 42.97 44.94 45.07 44.16
30.77 30.44 36.75 37.62 38.31 39.50 34.16 30.73 34.36 27.50 17.90 21.56 26.77 30.49 35.98 38.90 40.59 39.66 39.94 40.93 39.75 38.58 39.78 39.97 39.64 41.19 41.92 43.19 44.32 45.09 45.30 45.36 45.83 46.21 45.13 44.67 44.42 43.27 42.74 41.50 40.68 39.98 38.55 38.05
33.82 28.63 34.05 35.67 37.47 36.67 35.57 38.14 29.57 28.32 18.71 17.61 23.72 25.41 29.83 34.74 35.89 38.36 38.90 38.53 38.72 38.61 39.34 39.95 40.52 40.87 41.31 41.68 43.13 43.45 44.01 44.26 44.56 44.82 44.23 43.69 42.86 42.39 41.63 40.22 38.98 38.05 37.11 35.87
36.00 33.05 30.76 34.51 32.84 32.25 33.63 32.02 33.19 33.19 28.78 22.34 19.49 25.09 33.17 35.75 37.86 37.46 37.97 38.76 38.66 38.58 39.09 39.37 39.41 40.35 40.86 41.09 41.37 41.78 42.23 42.79 43.10 43.52 43.18 42.56 41.87 40.88 39.99 39.03 38.27 37.01 34.93 33.90
37.49 34.03 26.84 30.56 34.54 36.64 35.03 33.67 34.81 28.07 24.62 26.93 25.96 28.71 37.29 36.68 37.02 37.97 37.27 38.63 38.35 38.64 38.42 38.54 38.92 39.34 39.34 39.64 40.03 40.62 41.00 41.55 42.26 42.60 42.24 41.93 41.06 39.66 38.23 37.14 36.75 35.06 33.97 31.99
39.60 33.50 24.92 27.18 31.02 33.39 33.08 34.29 35.42 35.22 31.50 25.96 23.37 26.96 36.65 35.89 36.22 36.96 37.90 38.04 38.23 36.93 36.48 38.35 38.44 38.88 39.34 39.29 39.57 40.12 40.47 40.82 41.31 41.23 41.06 40.54 39.68 38.52 37.51 36.40 34.52 33.40 32.61 31.64
42.40 34.43 32.19 28.62 28.86 33.24 30.93 33.92 35.79 34.66 28.05 28.59 29.60 30.11 34.29 34.99 37.43 39.07 40.00 39.01 38.57 38.36 38.78 38.25 38.41 38.71 38.69 39.39 39.84 40.12 40.46 41.02 41.45 41.31 40.78 40.17 39.14 38.22 37.43 35.77 33.57 31.93 30.69 29.96
38.91 32.13 34.26 34.92 34.34 34.38 33.43 32.83 33.73 32.52 33.40 29.06 31.59 32.14 34.97 37.57 37.92 39.61 39.41 39.57 39.47 39.87 39.39 39.31 39.37 39.51 38.12 38.06 38.37 39.07 39.76 40.35 40.50 40.27 39.76 39.59 38.53 36.86 35.06 32.92 31.45 30.17 28.74 28.02
38.31 31.41 32.86 31.67 34.06 33.35 29.75 33.85 34.62 34.71 35.17 34.58 33.76 32.57 37.89 39.80 39.95 37.88 39.04 40.13 39.01 38.74 39.41 39.74 39.96 39.60 39.15 38.62 38.32 38.43 38.65 38.78 38.83 39.02 38.27 37.10 35.72 34.33 33.22 31.86 30.18 28.52 27.34 25.95
33.37 32.38 30.60 26.01 31.75 30.99 27.25 32.08 34.13 34.83 35.58 35.83 31.42 36.42 39.54 37.72 38.02 36.00 34.79 36.02 36.90 37.38 38.00 38.34 38.33 39.03 38.67 38.27 38.13 38.05 38.45 37.83 36.73 35.54 35.72 35.03 34.46 33.72 32.57 30.66 28.61 27.07 25.30 23.39
32.62 32.21 30.93 26.63 29.88 21.32 27.37 33.79 36.55 35.68 35.99 37.18 32.66 33.05 36.56 36.62 36.74 35.83 35.43 34.52 34.72 35.59 36.22 36.82 36.88 36.74 36.74 36.26 35.72 35.67 34.27 34.78 34.72 34.77 33.98 34.11 33.31 31.87 30.35 28.07 27.46 24.45 22.50 23.03
36.85 31.84 27.47 24.51 15.14 22.84 26.60 29.37 32.42 32.52 32.64 37.13 34.02 33.30 34.36 35.49 35.40 34.17 34.79 35.56 35.28 34.78 35.78 36.01 35.84 35.11 34.26 33.22 32.32 30.98 31.73 31.86 31.98 32.54 32.51 32.20 29.47 28.33 27.12 27.44 26.14 23.44 22.42 21.10
33.34 29.94 24.32 19.37 15.88 13.54 22.97 27.06 33.18 34.77 27.61 31.14 34.03 32.93 32.51 33.54 31.78 34.26 34.32 34.52 34.30 33.93 34.61 34.04 34.10 33.38 32.05 31.96 29.95 30.23 30.82 30.88 31.29 31.69 31.78 29.14 28.19 27.87 26.49 26.08 23.37 20.08 19.54 22.33
27.66 29.00 25.42 19.26 12.42 16.89 27.25 29.93 32.80 25.71 25.73 30.64 32.49 32.22 30.37 29.09 32.53 34.31 34.38 34.14 34.09 33.60 33.24 32.86 31.43 31.81 31.78 30.95 29.58 29.61 29.70 29.96 31.04 30.60 27.24 24.82 24.64 24.49 24.11 21.14 19.55 17.87 18.71 22.31
25.44 25.99 25.40 22.50 19.60 16.60 28.44 30.93 27.27 29.72 30.68 31.18 31.09 32.49 32.20 31.56 30.69 30.61 31.01 31.80 32.53 32.41 31.85 31.59 31.06 30.84 30.61 30.09 28.70 28.80 28.71 30.27 29.74 26.86 24.79 21.96 19.46 22.33 20.99 18.15 16.80 17.89 17.94 22.18
18.94 23.21 20.63 24.65 23.79 27.28 28.17 27.85 31.12 30.08 29.84 30.33 32.14 32.27 31.08 29.16 28.42 28.64 29.97 30.95 30.97 30.80 31.07 30.95 30.08 29.46 29.05 28.82 26.71 26.07 28.38 28.20 25.39 21.02 19.56 17.15 17.49 20.02 18.85 16.77 17.53 18.39 19.30 19.57
22.70 25.71 22.07 22.90 26.02 26.65 28.12 29.46 30.45 30.22 30.49 32.45 31.87 30.57 29.98 27.64 28.97 29.19 29.53 30.14 29.88 30.25 30.06 28.28 26.03 26.32 26.39 25.45 26.19 26.90 27.28 26.90 23.13 22.85 21.44 20.90 21.37 21.47 19.98 22.78 21.99 25.83 24.42 20.67
23.37 26.28 20.62 19.55 26.38 26.52 27.66 28.44 30.10 30.07 30.87 30.84 29.99 29.29 28.34 27.43 26.77 27.56 27.90 28.61 28.88 28.28 26.12 24.47 24.51 24.96 24.78 22.90 22.82 21.91 22.55 19.43 20.41 18.82 19.05 18.82 19.00 18.48 18.70 22.60 25.97 26.13 26.26 26.54
24.70 24.10 22.97 20.35 29.00 26.79 26.36 28.08 29.22 28.09 27.09 26.88 26.78 26.01 27.52 27.74 27.61 26.31 26.28 26.95 25.88 24.60 22.73 22.09 20.24 18.39 20.20 18.63 18.42 15.69 14.24 15.74 15.10 18.25 18.06 18.21 18.34 16.89 18.68 24.46 21.25 30.13 29.84 29.71

GFSCGP_sfc_wetblb_114.txt.gz
Wetbulb
37.89 35.41 32.23 34.53 36.03 33.62 33.65 30.75 29.93 30.70 35.12 33.62 33.54 34.70 38.06 38.13 37.37 38.02 38.90 39.23 39.70 39.70 43.66 41.56 42.08 42.55 49.25 52.29 55.81 59.09 60.86 62.50 62.71 63.37 62.62 62.15 61.40 61.67 61.25 60.60 59.61 58.94 58.63 57.47
34.77 31.32 36.77 37.51 35.93 34.27 32.29 30.40 28.96 32.84 35.16 35.16 33.40 34.43 37.11 37.43 38.00 39.52 39.91 39.77 39.49 39.48 39.78 39.76 41.42 40.66 41.11 48.90 54.00 56.86 59.69 61.46 62.33 63.36 63.42 63.23 62.49 62.13 62.14 61.64 60.13 59.18 58.88 57.77
32.03 34.34 37.60 36.91 33.52 33.01 29.91 29.64 29.05 31.40 31.95 32.49 30.19 30.28 33.15 34.92 35.47 37.81 38.97 39.47 39.64 39.87 39.85 39.41 40.06 39.91 39.17 39.86 47.58 54.09 57.62 60.15 61.96 62.83 63.00 55.32 54.67 53.64 54.24 55.73 60.02 59.41 59.21 58.22
32.52 35.42 34.94 33.33 32.24 33.60 29.09 34.08 33.55 31.97 30.05 26.05 29.30 23.68 28.93 32.76 34.51 35.71 37.94 38.06 37.60 36.69 38.02 38.98 39.82 39.20 38.27 39.03 40.48 48.83 54.29 58.19 60.35 62.15 62.12 60.72 60.05 58.82 58.76 59.83 59.17 59.53 59.32 58.71
31.44 33.58 33.33 32.13 33.91 35.18 32.39 34.62 33.62 31.25 28.09 26.10 25.16 25.12 28.32 29.97 32.38 36.35 38.05 36.70 37.22 37.93 38.02 36.93 38.14 39.16 38.96 39.73 39.78 44.89 51.16 54.98 57.81 60.89 62.21 61.09 60.65 61.10 55.98 54.51 55.96 56.12 55.07 57.74
32.70 34.92 34.76 34.91 34.34 35.84 35.89 33.30 31.49 28.87 27.23 23.04 26.45 27.42 25.13 29.54 33.18 33.23 34.94 35.90 37.84 39.00 38.69 39.05 39.72 40.63 41.38 44.92 45.09 47.57 51.23 54.18 57.25 60.54 61.12 60.36 60.08 54.52 52.32 51.94 53.56 53.31 52.50 51.21
31.94 32.85 35.44 36.06 33.42 34.69 32.07 30.62 23.29 22.08 21.32 22.21 25.20 25.03 28.15 32.92 35.00 33.92 36.05 35.86 37.01 38.52 38.41 38.72 38.94 40.02 41.42 44.13 46.83 48.77 52.04 53.10 54.79 56.61 57.45 57.69 58.22 54.11 54.37 52.83 53.43 50.65 50.54 47.63
27.57 26.55 34.38 36.36 34.39 31.99 30.84 30.96 24.60 17.40 18.30 21.57 25.92 23.72 29.67 34.37 35.38 36.83 37.79 38.25 38.39 38.27 38.47 38.03 38.34 39.27 40.95 42.00 44.11 47.63 50.85 50.98 51.97 52.44 53.19 52.94 53.03 53.70 52.93 51.68 51.51 51.15 49.78 48.68
28.40 28.15 34.33 35.54 36.53 37.44 31.67 28.58 32.27 24.70 14.61 19.53 24.00 27.66 33.35 35.86 35.66 36.29 36.88 37.13 36.10 36.71 37.66 36.90 38.57 38.91 40.02 41.37 41.99 43.82 46.35 48.93 50.48 50.70 49.67 50.01 50.21 49.96 49.59 47.68 47.02 46.62 44.90 43.15
33.31 27.94 32.81 34.56 36.85 35.80 33.93 35.70 27.39 25.59 15.42 15.11 22.38 24.17 28.45 31.87 34.59 35.53 35.73 36.51 36.76 37.60 38.33 38.51 38.62 39.11 39.68 40.00 40.90 41.94 43.23 44.43 45.32 47.41 47.83 47.36 46.80 46.31 45.43 43.50 42.57 41.31 40.51 39.06
34.73 32.10 29.65 33.20 31.56 30.97 31.24 29.89 30.36 30.71 27.38 22.01 17.79 24.70 30.76 32.97 35.63 35.74 35.75 36.65 37.22 37.41 37.45 37.56 37.78 38.44 39.05 39.65 40.36 40.62 41.35 42.20 42.83 43.73 43.50 43.52 42.72 41.83 41.15 40.56 40.03 39.08 37.56 37.05
36.63 33.04 27.69 29.63 32.90 34.70 33.87 32.46 31.71 26.06 22.67 23.85 23.31 28.55 34.78 33.94 35.82 36.79 36.85 37.65 37.18 36.96 37.55 37.55 37.65 38.30 38.71 39.04 39.42 39.71 40.11 41.06 41.13 41.54 41.65 41.80 41.29 40.29 39.65 39.15 38.82 37.30 37.44 35.81
37.67 31.49 24.54 27.97 28.54 31.91 31.06 31.58 32.63 31.52 28.74 23.09 20.77 28.42 34.27 34.26 34.26 35.10 35.64 36.32 37.82 35.41 35.48 37.12 37.29 37.60 37.85 38.03 38.45 38.89 39.20 39.81 40.21 40.43 40.25 39.86 39.58 38.91 38.89 38.21 37.49 36.51 35.80 35.28
40.34 31.41 29.93 27.18 27.10 32.25 30.74 31.48 33.69 33.58 27.18 27.86 27.95 27.81 31.25 33.56 35.31 36.32 36.96 36.44 35.79 35.51 36.29 36.40 36.73 36.75 37.05 37.49 37.32 37.78 38.66 39.31 39.70 39.87 39.29 38.96 38.84 38.71 38.96 38.09 36.65 35.98 35.26 34.69
38.86 28.92 31.17 31.83 32.21 32.13 29.38 28.94 32.46 32.50 33.23 28.40 32.61 30.32 32.29 35.26 36.97 36.77 37.63 36.92 36.27 36.83 37.23 37.11 37.06 37.00 37.07 36.76 36.75 37.10 37.46 37.63 37.75 38.28 38.54 38.68 37.99 37.77 37.53 36.61 36.19 35.22 33.96 33.37
39.79 32.21 33.82 32.49 34.72 34.13 32.31 34.11 32.23 32.07 33.06 33.62 33.18 31.74 34.68 38.97 36.90 36.43 38.18 37.80 37.30 37.12 36.87 36.91 37.21 37.00 36.86 36.17 35.56 36.07 35.95 35.75 35.37 36.27 35.09 35.31 35.04 35.46 35.52 34.70 34.41 33.54 32.56 31.75
35.20 32.15 31.28 29.67 33.05 32.13 28.31 33.42 34.11 32.92 34.51 34.01 30.51 35.54 37.55 36.43 37.13 36.78 36.38 36.74 35.95 35.57 35.59 35.35 35.22 35.26 35.05 34.32 34.51 33.59 34.16 33.69 33.54 34.00 33.52 33.59 33.52 33.91 33.41 32.92 31.75 28.96 27.31 25.35
33.23 33.13 32.59 27.38 30.44 23.89 29.90 30.50 37.46 35.33 36.18 35.38 33.85 32.70 36.05 36.54 35.05 34.18 34.00 33.61 33.48 33.81 33.78 34.12 34.27 34.27 33.92 33.13 32.38 31.81 31.88 32.39 32.45 32.21 31.82 31.90 31.70 30.67 29.25 26.49 25.61 24.21 23.15 23.42
37.60 34.03 29.84 26.85 26.65 26.16 28.87 29.06 31.80 32.88 33.34 38.20 36.40 34.41 33.59 32.41 32.49 31.30 33.30 33.59 34.08 33.88 34.04 33.91 33.79 33.63 32.54 31.97 30.62 30.42 30.68 30.37 30.54 30.50 30.45 29.72 26.29 24.13 22.95 22.22 21.84 20.61 20.10 20.15
34.67 35.45 32.95 24.51 22.06 17.78 24.17 26.49 32.88 34.32 28.18 31.92 37.75 35.03 32.55 32.45 30.10 29.66 32.97 32.73 32.57 32.68 33.02 32.79 32.64 31.83 31.07 30.92 30.19 30.07 29.70 29.15 29.12 29.33 29.42 26.22 23.83 20.36 20.75 21.60 20.48 19.41 18.10 21.79
30.16 31.29 29.16 25.61 21.52 19.76 26.53 29.75 32.69 22.18 26.07 29.90 34.09 35.24 33.04 29.66 32.28 32.43 32.03 31.45 31.93 31.67 31.89 31.51 30.69 30.82 30.60 30.25 29.49 29.02 28.39 28.36 28.82 28.40 24.47 22.46 21.73 20.25 19.48 18.56 17.86 16.21 16.00 19.75
27.82 27.44 26.64 23.52 22.43 22.37 27.90 30.75 29.07 30.14 29.09 30.39 30.46 31.29 30.81 29.05 27.91 28.25 28.63 29.00 29.84 29.96 29.93 29.85 29.12 28.66 28.44 28.33 27.50 27.21 27.06 27.84 27.13 24.63 23.12 20.47 17.42 19.31 20.09 14.84 14.60 14.68 13.99 14.10
24.31 27.82 26.35 26.89 27.84 28.23 27.72 28.64 30.66 30.53 29.44 29.65 29.05 28.93 29.15 27.56 27.42 27.67 27.51 28.01 28.92 28.46 28.44 27.59 26.67 26.54 26.17 25.57 24.61 22.70 25.08 25.15 23.55 20.78 21.61 20.77 20.88 21.47 20.10 17.52 18.39 18.30 15.18 16.00
21.81 24.47 24.12 26.22 27.74 28.02 29.50 28.94 28.85 30.55 30.96 29.59 28.04 27.37 27.12 26.95 27.51 27.58 27.89 28.20 27.73 26.51 25.02 23.43 22.58 22.33 21.86 20.94 21.99 20.62 21.13 19.85 15.88 17.07 17.86 18.89 17.28 18.56 15.21 17.71 17.58 14.30 13.76 13.95
24.27 25.80 21.04 21.20 25.47 25.55 27.40 28.89 30.24 30.67 28.77 27.96 27.84 27.52 27.49 27.14 25.74 27.03 26.30 26.05 24.30 22.80 20.42 19.45 18.56 18.77 17.69 16.92 16.67 14.73 13.18 11.19 16.86 19.49 17.53 16.98 15.57 12.81 16.36 16.91 17.70 18.20 18.15 18.71
24.53 24.30 24.31 23.26 28.04 29.08 29.60 28.61 29.86 28.50 27.74 28.08 26.91 25.81 26.07 27.38 27.26 24.72 24.42 22.39 19.79 17.61 16.12 15.24 13.68 12.43 12.79 12.37 11.80 9.49 4.04 4.33 5.61 12.93 19.04 20.21 18.96 17.08 16.55 16.98 22.90 28.87 29.49 30.29

GFSCGP_sfc_wetblb_117.txt.gz
Wetbulb
37.02 34.75 31.62 35.01 35.50 34.44 34.67 32.20 31.96 32.97 35.96 35.18 35.00 34.81 38.09 38.85 39.05 39.54 39.56 40.52 41.00 41.34 44.57 43.84 44.03 44.67 51.41 55.19 57.37 60.70 62.45 63.85 63.95 63.06 62.16 62.19 61.55 61.67 61.07 60.62 60.30 59.32 58.69 57.01
34.10 30.87 35.91 37.91 35.80 34.43 32.77 31.74 31.37 34.21 36.28 36.27 34.14 34.65 37.60 38.05 38.93 40.50 41.33 40.82 41.19 41.62 42.21 42.18 42.97 43.15 42.92 49.86 55.18 57.60 60.91 62.88 63.29 63.85 63.41 63.46 62.76 62.54 62.29 61.05 60.41 59.76 58.85 57.61
31.02 33.11 36.88 36.32 33.98 33.50 31.32 31.12 30.65 32.57 33.34 32.68 31.49 31.30 33.73 36.20 36.51 38.43 39.31 40.62 40.70 40.94 41.33 42.18 41.51 41.69 41.53 41.93 49.18 55.03 58.37 61.28 62.98 63.84 63.77 58.45 58.56 56.68 58.37 60.30 59.87 59.84 59.34 58.32
31.97 33.84 33.91 32.42 31.97 33.45 29.14 34.38 33.98 33.11 31.92 27.57 30.52 25.88 30.50 34.31 34.90 36.33 38.85 38.84 38.62 38.57 39.07 39.33 39.30 40.01 41.11 41.76 41.92 50.37 55.77 59.21 61.85 63.18 63.14 61.03 60.71 59.19 60.26 60.49 61.01 59.78 59.51 58.84
30.72 32.46 32.15 31.43 33.32 35.03 32.59 34.18 33.52 32.50 29.50 27.55 27.47 27.42 29.57 30.99 33.81 37.31 38.14 37.82 39.30 40.20 40.67 40.90 41.20 41.97 41.94 43.13 41.20 42.70 50.89 55.93 59.71 61.83 62.85 61.57 60.83 61.37 60.52 59.90 59.59 59.36 59.15 59.33
31.21 33.65 33.92 33.93 33.39 34.60 35.10 33.19 31.51 29.20 28.38 23.84 27.25 28.80 26.88 30.95 34.48 34.76 36.16 36.77 37.42 39.38 40.40 40.54 41.27 42.37 44.09 47.37 47.57 44.75 46.83 52.54 56.97 60.47 62.08 61.57 60.45 60.27 55.99 55.74 57.56 56.73 53.70 53.72
30.52 31.52 33.22 35.53 32.69 34.39 31.87 30.41 24.19 23.30 21.89 22.72 26.00 26.02 29.41 33.89 35.11 35.43 36.50 36.93 38.70 39.28 39.82 40.10 40.46 41.62 42.98 45.98 49.32 50.13 51.27 53.02 56.00 59.01 60.28 60.24 59.92 58.22 56.78 54.99 55.97 52.54 50.76 49.84
26.48 24.68 32.80 35.26 33.85 31.87 30.32 30.76 24.68 18.35 19.88 23.04 26.88 24.45 30.34 34.45 35.69 36.99 37.89 39.26 39.70 38.89 39.46 39.49 39.71 40.72 42.08 43.05 47.32 50.90 52.08 52.12 53.84 54.90 55.39 55.97 56.08 55.28 55.24 54.46 53.62 52.79 52.05 51.07
27.21 28.01 33.52 34.62 35.85 36.92 31.74 28.82 31.55 24.39 15.13 20.61 24.51 27.79 33.34 35.57 35.46 36.98 38.15 38.46 39.15 38.93 39.49 39.66 39.88 40.13 40.91 42.24 43.21 47.79 50.22 51.02 51.91 52.41 52.11 52.64 52.87 52.76 51.91 50.61 50.78 50.68 48.89 46.37
32.85 27.17 32.38 33.90 36.52 35.70 33.73 35.20 27.63 25.51 15.29 15.01 22.61 24.15 29.14 31.28 34.55 37.15 37.81 37.66 37.81 37.96 38.37 38.92 39.27 39.79 40.45 41.27 42.16 43.62 46.00 48.10 48.97 49.80 50.23 49.87 49.89 49.83 49.33 48.08 47.18 46.46 45.42 44.13
34.27 31.83 29.30 33.03 31.61 30.51 30.84 29.71 29.69 29.71 26.68 20.49 16.79 24.30 30.19 34.07 34.21 35.71 37.07 38.01 38.08 38.03 38.27 38.57 38.90 39.52 40.20 40.81 41.43 41.86 42.79 44.08 44.86 45.92 46.12 46.69 45.77 45.35 45.10 45.12 44.43 43.76 42.22 41.51
35.32 32.27 27.21 29.23 32.15 34.34 33.35 32.24 31.68 27.41 22.51 23.55 23.60 27.48 34.20 33.30 35.81 37.06 37.20 37.98 37.88 37.76 37.89 37.90 38.57 39.16 39.60 40.17 40.66 41.04 41.58 42.06 42.47 43.27 43.75 43.68 43.15 42.76 42.76 42.65 42.52 41.10 41.40 39.49
36.44 29.44 20.01 24.69 28.14 30.51 30.15 30.12 31.36 30.61 29.21 24.65 22.46 28.85 33.72 34.16 35.23 36.68 37.52 37.81 38.05 36.62 36.73 37.16 37.79 37.93 38.38 38.73 39.17 39.59 40.10 40.42 41.10 41.43 41.81 41.69 41.83 42.08 42.03 41.58 40.72 39.55 39.09 38.52
40.64 32.14 30.05 26.21 27.10 31.71 30.30 30.92 32.46 33.52 26.37 28.61 27.35 31.17 31.87 33.36 35.08 36.51 37.99 38.12 38.15 36.58 36.86 36.87 36.72 36.67 37.23 37.53 37.95 38.37 38.77 39.61 40.40 40.56 40.56 40.40 40.32 40.34 40.48 40.09 39.11 38.67 38.07 37.81
37.39 29.58 30.55 30.25 31.45 31.77 29.73 31.29 32.82 32.47 33.75 28.91 33.05 30.44 32.07 34.86 36.13 38.12 38.18 38.11 36.34 36.73 36.75 36.87 37.05 37.03 36.83 36.71 36.78 37.17 37.07 37.02 38.10 38.57 38.57 38.05 37.85 38.02 38.07 37.51 37.47 37.03 36.79 36.56
38.53 31.73 30.89 28.10 32.63 33.46 31.69 31.56 32.10 33.47 34.09 33.73 33.28 31.16 35.16 38.08 36.46 36.45 38.03 38.08 37.04 36.94 36.95 36.55 36.33 36.06 35.49 35.13 35.23 34.96 35.00 35.40 35.77 35.90 35.37 35.21 35.48 35.32 35.25 35.50 35.26 34.77 34.37 33.77
35.45 32.68 32.14 29.22 31.13 31.25 29.25 32.40 32.04 31.78 32.68 32.94 29.80 35.30 36.41 35.10 36.23 37.00 37.34 37.41 37.13 36.44 35.76 35.25 35.21 35.20 34.73 34.17 34.01 33.77 34.30 34.58 34.02 33.75 33.27 33.34 33.24 33.23 32.86 32.65 32.13 29.99 29.83 29.41
32.63 32.14 32.17 28.27 31.66 24.22 31.39 30.93 36.85 34.87 36.02 35.88 34.87 33.70 35.67 36.46 36.63 37.12 37.54 36.67 34.85 34.28 34.27 34.61 34.73 34.55 34.20 33.54 32.63 33.05 33.12 33.22 33.15 32.65 31.94 31.53 31.01 30.38 29.42 28.52 28.13 27.55 27.17 27.23
37.21 33.42 30.49 27.41 27.34 25.77 29.34 29.47 32.03 32.69 33.37 38.34 36.01 34.75 34.96 33.29 32.63 31.27 34.01 34.80 34.46 33.98 34.08 34.13 34.17 33.67 32.60 32.09 31.68 32.38 31.64 31.36 30.91 30.36 30.30 29.42 27.42 26.18 25.42 25.31 25.44 24.89 25.11 25.31
34.39 34.93 31.87 25.18 23.76 18.78 24.50 26.27 32.32 35.12 29.12 32.54 38.16 37.32 32.87 32.70 32.34 32.47 32.78 32.79 32.48 32.86 33.03 32.56 32.62 31.80 31.33 30.76 30.66 30.64 29.67 29.55 28.88 29.05 28.87 26.53 24.73 20.96 21.95 23.64 23.13 23.84 22.93 24.82
30.93 31.64 30.03 27.20 20.81 21.92 27.77 29.99 32.97 24.80 27.47 30.19 34.73 36.03 32.69 33.50 34.62 32.91 32.17 31.49 31.55 31.61 31.61 30.77 30.55 29.90 29.22 29.26 29.18 28.55 28.15 27.42 27.96 27.33 24.94 23.94 23.37 21.90 22.04 21.37 21.18 20.07 20.52 21.93
29.14 28.85 28.71 27.78 24.76 23.45 29.06 30.89 29.36 31.39 30.20 31.04 30.93 33.01 31.74 29.52 29.89 30.43 29.84 29.69 30.26 30.76 30.78 30.19 28.93 27.37 26.54 26.81 26.42 26.33 25.41 25.86 25.18 23.65 22.65 20.61 18.54 20.98 21.62 15.23 19.04 17.55 17.71 18.50
24.83 28.78 27.25 29.27 28.55 29.06 28.72 29.24 31.38 31.35 31.61 30.71 31.07 30.79 29.82 28.39 27.43 27.77 27.83 28.41 29.24 29.33 28.24 27.43 26.48 24.73 22.70 23.16 22.85 22.17 21.95 21.94 20.61 17.21 16.32 16.73 18.31 20.67 19.25 17.05 20.24 20.85 17.87 19.55
21.40 24.12 24.64 26.36 27.94 27.61 29.04 29.70 29.79 30.74 31.47 31.08 29.97 29.01 29.02 27.17 26.99 26.79 27.52 28.89 27.62 26.57 24.59 23.20 23.06 21.52 19.34 18.47 18.90 17.56 17.03 15.89 11.62 11.94 15.00 17.35 17.13 18.26 17.80 19.97 20.17 19.65 20.11 19.96
24.34 25.70 20.73 22.17 24.85 26.56 28.78 29.42 31.23 30.62 29.53 27.56 27.11 26.45 27.27 28.10 26.06 27.19 27.49 27.20 25.44 22.50 20.38 18.79 18.35 17.07 15.34 14.64 14.07 11.13 10.04 8.49 11.22 13.17 16.14 17.41 16.80 14.79 17.72 18.86 20.21 20.32 20.89 21.54
24.66 24.35 24.82 24.26 29.16 30.70 31.37 31.52 30.08 29.40 27.41 27.07 26.63 25.73 26.39 27.22 27.00 25.44 24.76 22.89 19.89 17.64 15.68 14.78 12.67 11.38 10.37 9.81 9.39 5.90 2.60 3.44 5.06 11.23 12.72 12.81 14.62 16.58 18.15 18.28 21.90 26.33 29.23 30.33

GFSCGP_sfc_wetblb_123.txt.gz
Wetbulb
46.65 42.06 39.70 42.26 44.01 43.92 43.37 41.61 40.30 42.41 42.67 42.89 42.54 43.02 45.09 47.41 47.48 47.27 48.24 49.16 49.95 50.74 52.80 52.41 53.25 57.01 61.39 63.79 64.72 65.39 65.63 66.73 66.67 64.09 63.17 63.37 62.90 63.40 63.47 64.88 65.25 64.23 63.18 61.87
42.26 39.04 43.84 45.17 44.69 42.34 41.91 40.54 40.20 40.91 42.60 42.03 42.55 41.77 44.63 46.03 46.69 47.79 48.10 48.63 49.42 50.65 51.71 52.97 53.13 53.52 55.89 60.48 62.65 63.74 65.02 66.20 66.72 64.75 63.92 64.28 64.14 63.37 63.92 64.79 63.81 64.76 64.06 63.12
40.39 41.94 44.99 43.54 42.01 40.44 40.73 39.76 40.10 39.59 41.22 41.93 40.67 39.99 42.35 45.05 46.30 47.26 48.04 48.95 49.64 50.19 50.96 52.35 52.40 52.46 53.45 53.41 56.68 60.65 62.74 65.01 66.59 65.43 64.16 63.49 63.46 62.85 62.32 62.88 62.91 63.03 63.50 63.23
42.01 43.31 42.48 41.50 40.25 41.47 37.79 42.40 41.79 39.67 38.68 36.00 41.15 34.87 42.09 43.72 43.84 44.13 45.66 47.00 47.96 49.15 50.29 50.34 50.45 50.80 51.55 53.87 55.96 54.91 57.81 61.02 64.09 66.74 63.84 62.79 61.36 60.29 61.62 61.89 62.56 62.33 62.73 61.93
39.92 40.07 40.03 39.83 40.83 42.79 40.00 43.01 41.32 40.86 39.28 38.64 38.60 35.92 39.56 42.54 41.58 43.63 46.29 47.38 48.62 49.16 49.36 49.90 50.47 50.56 51.18 51.60 51.70 52.33 52.59 56.14 60.48 63.88 65.00 62.85 61.96 62.02 63.03 62.17 61.41 61.57 61.92 62.05
41.72 42.63 43.39 42.75 42.03 43.28 42.74 41.19 40.72 40.48 38.97 32.16 37.48 36.87 37.84 40.90 41.64 44.17 45.53 46.13 46.60 47.41 48.99 48.95 49.20 50.01 51.62 54.14 54.02 52.35 50.20 51.40 56.70 60.55 63.57 62.67 61.38 61.18 61.04 61.34 61.09 60.80 60.37 60.07
38.38 38.85 41.40 42.63 39.51 41.97 42.06 39.02 32.65 30.98 31.06 30.28 36.28 35.62 38.79 43.49 44.20 43.83 44.53 45.46 47.11 48.51 49.11 49.04 49.33 50.13 51.58 53.95 54.12 54.20 51.01 49.72 53.43 57.16 60.63 62.39 61.06 60.53 60.58 61.27 61.33 60.12 56.50 55.49
33.76 31.38 38.50 41.49 41.26 38.50 39.23 39.25 34.27 26.69 28.63 32.37 33.66 31.53 38.05 44.57 45.77 44.07 44.52 44.65 47.55 48.60 48.53 48.65 48.42 49.28 49.86 51.94 53.12 54.85 54.36 51.96 53.00 56.37 58.78 61.11 59.97 59.84 60.24 60.49 60.59 58.86 58.29 57.35
35.12 34.68 41.40 41.40 42.27 42.55 38.44 36.32 41.71 33.40 28.29 31.42 35.28 38.03 42.23 44.25 43.54 43.72 43.84 44.53 46.53 47.93 48.39 48.64 48.60 49.08 49.66 50.47 52.56 53.47 54.19 54.51 55.72 56.29 57.90 59.33 58.62 57.77 57.38 57.56 57.51 57.00 54.99 51.68
39.47 33.84 39.02 39.39 41.60 42.33 40.66 42.32 33.68 35.73 29.32 26.80 33.12 35.43 36.83 40.10 41.76 43.80 43.71 44.26 46.28 47.36 46.97 47.44 47.80 48.08 48.31 49.57 51.18 53.52 53.49 53.42 53.97 54.75 55.56 55.49 55.66 56.17 55.61 54.40 52.76 52.32 50.41 49.51
40.93 38.18 34.56 38.03 36.80 36.98 37.14 37.17 37.99 37.87 35.88 30.31 29.02 33.97 42.08 42.61 43.89 43.64 44.98 46.72 47.44 47.01 47.23 47.08 46.93 47.04 47.68 48.49 49.74 51.08 52.47 51.64 51.22 51.07 51.40 51.33 50.29 50.53 51.07 50.89 50.22 49.82 48.90 50.19
41.54 38.97 32.56 34.56 40.39 41.89 41.03 38.27 38.59 33.46 31.08 34.51 33.46 35.17 42.13 42.88 43.92 44.98 46.26 46.40 47.14 47.10 46.86 46.84 46.56 46.86 47.27 47.81 48.39 49.08 50.15 51.16 51.39 50.69 50.13 48.95 48.77 49.30 49.85 49.73 50.19 49.53 50.28 49.06
41.36 37.81 32.04 31.69 36.31 39.49 36.44 38.80 39.86 39.56 37.97 32.78 30.13 33.86 43.52 42.62 42.36 44.09 45.64 45.75 44.99 45.34 45.06 45.11 45.43 45.91 46.37 46.53 46.86 47.45 47.96 47.98 48.96 50.60 50.99 50.41 50.35 50.81 50.41 49.55 48.77 48.11 47.64 47.05
42.52 37.52 33.55 30.15 34.28 38.08 33.85 36.54 38.72 37.64 32.48 33.04 34.44 36.63 40.58 41.79 42.88 43.96 45.15 45.28 45.18 44.74 44.57 45.28 45.32 45.55 45.79 45.90 46.39 46.65 46.63 47.56 47.75 48.23 48.43 48.04 47.80 47.95 47.85 47.13 46.75 45.84 45.80 45.23
41.18 33.08 35.55 37.36 39.53 39.66 36.98 35.56 36.98 34.07 36.48 33.07 36.22 37.11 40.38 43.04 43.96 45.41 46.46 46.06 45.55 44.37 43.69 44.77 45.00 45.11 44.68 44.04 44.31 44.87 44.88 45.20 46.22 45.81 45.20 44.14 44.21 44.60 44.37 43.66 43.25 42.16 41.75 41.34
41.63 33.40 35.78 32.38 37.31 37.58 34.17 37.71 37.91 37.36 37.36 37.45 37.82 37.51 43.90 45.16 45.80 45.42 45.90 46.16 45.58 44.78 44.35 44.90 44.41 43.94 43.52 43.59 43.65 42.98 43.15 43.32 44.49 43.10 41.48 41.29 40.86 39.36 39.21 38.70 37.87 37.91 37.82 38.46
36.49 33.71 33.41 29.84 35.17 34.42 29.21 33.89 37.28 37.35 38.61 38.46 34.24 39.50 43.54 43.26 43.06 44.47 45.76 46.18 45.69 45.95 45.31 44.21 43.59 43.06 43.12 43.02 42.67 42.59 42.19 42.45 41.10 39.38 38.17 37.89 37.86 36.66 36.40 36.37 36.31 35.82 36.19 35.70
33.84 33.99 34.58 31.97 32.74 24.37 35.01 41.57 40.63 38.85 40.02 40.86 40.74 41.91 43.60 44.01 44.72 45.48 46.60 46.71 45.82 46.23 45.31 44.14 43.89 43.02 42.06 41.28 41.14 40.29 40.38 38.93 37.37 36.12 34.89 34.72 35.02 34.27 34.21 34.15 34.23 34.19 34.98 34.14
41.66 36.60 32.81 29.92 30.12 33.60 36.78 35.34 37.44 36.76 36.45 41.68 41.23 42.83 43.50 44.47 41.89 42.62 44.33 46.34 47.29 46.38 44.48 43.89 43.41 41.53 39.72 39.29 38.85 37.01 36.25 35.55 34.26 33.43 32.93 32.54 31.59 30.66 31.17 31.12 32.15 32.82 32.71 32.83
37.57 37.76 34.10 31.63 29.04 26.56 36.00 39.12 41.77 41.78 32.13 42.19 43.36 42.76 42.95 41.29 36.89 41.36 43.17 42.14 44.00 44.09 42.83 40.90 39.19 38.47 37.14 36.70 36.35 34.76 34.02 33.29 31.67 31.32 31.02 30.89 30.22 29.78 29.54 31.04 30.59 31.39 32.06 31.18
31.85 32.42 30.67 32.09 31.14 34.38 37.58 36.65 42.14 31.28 35.56 38.06 41.52 42.90 42.00 39.55 42.32 41.15 40.87 40.58 40.55 39.52 38.26 37.86 36.92 36.19 35.01 34.05 34.08 32.65 31.52 29.69 29.80 30.10 29.97 28.86 29.48 29.11 29.60 30.46 30.66 30.10 30.28 30.11
30.98 30.54 30.10 31.97 30.34 28.22 36.02 37.26 36.43 38.88 36.80 38.15 38.92 40.89 42.01 41.73 39.06 38.61 38.58 37.61 37.13 36.21 36.22 35.40 32.45 30.48 30.66 32.67 32.29 30.16 27.82 27.64 27.67 28.42 27.66 27.21 27.56 29.56 30.09 28.83 30.44 29.60 30.29 30.21
31.97 36.21 33.63 34.85 35.68 36.04 39.07 39.11 39.54 38.87 39.20 38.01 39.73 39.69 40.19 36.95 37.06 37.64 36.62 36.10 36.17 35.73 33.17 32.07 29.86 27.73 27.02 28.23 30.55 27.40 24.59 25.08 24.60 25.63 24.86 25.90 25.98 27.36 27.67 28.58 29.09 30.63 31.14 31.07
33.28 33.46 34.49 35.71 35.57 35.66 37.06 36.76 37.49 37.82 37.67 37.83 38.01 39.25 38.87 37.58 36.37 34.34 34.30 33.85 32.45 31.67 30.42 28.44 27.08 25.41 23.60 23.73 23.57 22.94 21.30 20.83 22.52 24.61 24.12 25.54 25.64 25.08 27.23 28.31 28.87 29.32 29.92 30.14
33.14 33.41 32.87 33.10 31.59 33.51 35.40 37.05 38.49 36.16 35.43 34.19 33.75 34.66 36.06 36.16 33.50 33.22 32.22 31.17 30.58 28.88 27.95 28.08 26.76 24.77 22.18 21.45 18.87 17.63 16.61 17.61 22.28 22.88 22.70 23.64 24.62 24.24 24.79 26.23 26.78 26.76 28.12 28.66
30.28 32.13 32.53 33.67 36.55 36.65 36.52 37.94 38.00 36.41 35.00 35.48 34.27 31.72 31.87 34.48 33.02 32.71 31.24 29.94 27.49 26.02 25.21 24.53 23.75 21.95 20.28 19.70 16.31 12.61 11.81 14.07 17.67 22.65 22.02 20.57 21.28 22.56 22.88 23.42 24.51 28.10 28.01 28.08